Temp
64 67 65 65 68 50 56 59 52 55 60 58 48 52 55 53 47 43 50 49 52 57 61 63 65 66 65 66 66 66 65 66 66 67 67 68 69 69 70 70 72 72 73 74 75 76 76 77 77 76 76 76 75 75 74 74 74 74 74 75 75 75 75
64 63 65 67 66 63 60 51 57 62 63 58 51 43 41 39 40 42 47 46 47 50 48 61 62 62 63 64 64 66 66 66 66 67 67 68 69 70 70 70 70 73 74 74 74 76 77 77 78 77 76 77 76 76 76 75 74 73 74 75 75 75 75
64 63 68 64 67 65 66 62 65 61 51 51 50 49 38 39 38 41 45 48 49 49 50 57 57 59 61 63 64 64 64 65 66 67 68 69 70 70 69 69 69 70 74 74 74 75 75 76 76 77 77 78 77 77 77 77 76 76 76 77 77 76 76
62 59 58 52 57 64 65 67 62 59 56 47 48 51 46 49 42 42 43 45 43 51 54 60 58 60 62 62 63 63 64 66 66 67 67 68 68 69 69 69 70 70 71 74 74 75 74 74 75 77 77 77 77 77 76 76 77 76 76 76 76 76 77
60 56 49 55 54 54 57 58 55 60 53 56 57 51 48 46 41 40 39 38 45 50 56 58 61 61 63 64 63 64 65 66 67 68 68 68 68 69 69 70 70 70 71 72 73 73 74 74 76 77 77 76 77 77 76 76 76 76 76 77 76 76 76
51 48 52 57 58 64 62 59 58 56 52 52 48 44 52 49 44 39 40 39 46 56 63 62 61 63 65 65 64 63 65 66 66 66 66 67 67 69 70 70 71 70 70 71 72 73 73 74 73 75 75 76 76 75 75 75 75 75 75 76 76 75 76
54 58 62 58 59 59 56 62 59 54 52 52 44 41 45 47 48 49 44 40 43 55 61 63 63 64 65 64 64 62 64 65 65 66 67 68 69 69 70 70 70 71 71 71 71 71 72 72 72 73 74 74 74 74 74 75 75 75 76 76 77 76 75
47 55 57 59 58 60 62 58 55 56 55 52 49 45 50 46 46 44 40 40 46 58 62 63 63 63 63 63 63 62 63 64 65 65 66 66 67 68 69 69 70 71 71 71 71 70 71 71 71 72 72 73 74 74 74 76 75 75 75 76 76 76 76
42 45 48 53 54 55 52 55 54 55 54 55 53 50 47 48 47 45 47 40 45 57 62 62 63 62 62 62 62 63 61 63 64 64 65 66 67 67 68 68 69 70 70 69 70 70 70 70 71 71 72 72 73 73 74 75 75 76 76 76 76 76 75
36 38 38 42 45 46 49 54 56 57 57 56 57 51 45 40 47 46 44 42 50 57 60 59 61 61 61 62 63 64 65 63 63 63 64 65 66 65 67 68 68 68 69 69 69 69 70 70 70 70 71 71 72 73 74 75 75 74 75 75 76 76 75
34 35 37 44 52 49 53 56 53 55 53 54 52 48 46 47 44 47 46 50 51 53 55 56 58 59 59 60 61 62 63 64 65 64 65 65 64 65 64 64 65 67 67 68 68 69 69 70 71 71 71 71 72 72 72 73 73 74 73 74 74 75 75
47 44 45 49 52 50 52 53 56 53 53 53 55 54 47 47 50 40 46 53 52 53 56 57 57 59 60 61 62 63 64 64 65 64 65 66 65 64 64 65 65 65 66 67 68 68 69 69 70 71 71 71 72 71 71 72 73 73 74 73 73 73 73
53 53 49 50 51 52 52 51 51 54 51 53 55 49 52 56 53 50 49 53 53 55 58 59 59 59 60 62 63 65 66 66 65 65 64 64 64 64 64 64 64 65 65 66 66 68 69 69 70 70 71 71 70 71 71 71 72 72 73 73 72 72 72
52 53 52 51 51 52 52 52 51 50 51 51 50 50 52 51 48 50 51 53 55 58 59 60 60 62 63 64 65 66 65 65 64 64 64 64 64 64 64 64 64 65 65 66 66 67 67 68 69 70 70 70 70 69 69 70 70 71 72 72 72 71 70
50 51 54 52 48 50 51 52 53 52 51 52 52 52 52 54 51 53 54 54 53 58 62 61 62 63 64 64 63 64 65 65 64 64 63 63 63 64 65 65 64 65 65 66 66 66 67 67 68 68 68 68 69 69 69 69 69 70 71 70 70 70 70
46 50 50 50 48 46 50 51 52 52 50 50 51 50 52 50 49 52 53 50 51 57 62 61 61 61 62 61 62 62 63 65 64 63 63 62 62 63 65 65 65 65 65 65 65 66 66 67 67 68 68 69 69 68 69 68 69 69 69 69 69 69 70
43 50 50 48 44 43 44 46 50 51 49 51 53 52 55 55 56 52 49 52 58 59 61 58 58 60 60 61 61 61 62 63 64 63 63 63 62 62 63 65 65 66 65 66 66 66 66 66 67 68 69 68 67 68 68 69 69 68 68 68 68 68 69
39 45 49 46 39 36 41 51 53 52 53 52 51 51 52 57 56 53 55 57 60 60 59 58 57 58 59 60 61 63 62 61 61 62 63 64 63 62 62 62 62 63 64 66 67 67 67 68 69 70 69 68 68 68 69 69 68 68 67 67 67 67 68
42 42 42 41 35 38 48 52 53 53 53 53 52 53 54 53 54 57 57 59 59 60 61 60 60 61 62 63 63 63 63 63 62 62 63 63 63 62 62 62 62 63 64 65 66 67 68 68 69 68 68 69 67 67 68 67 68 67 68 68 67 67 67
43 38 35 32 37 45 51 50 56 56 55 55 56 54 55 54 54 58 57 59 60 60 61 62 62 61 62 62 62 63 63 64 63 63 63 63 64 64 65 64 63 64 64 64 64 64 66 66 66 66 66 67 66 65 66 65 65 66 66 66 67 68 67
40 40 36 43 41 49 49 48 53 53 49 50 49 45 49 54 54 58 58 59 60 61 61 61 61 62 62 58 57 62 63 63 63 64 64 65 65 65 64 65 63 64 64 64 64 64 64 64 64 64 64 65 65 64 64 64 63 64 64 64 64 66 67
39 41 38 34 34 34 39 47 50 52 55 54 52 51 48 53 57 59 60 58 60 60 60 60 61 62 57 52 54 59 62 63 62 61 63 64 64 64 63 63 63 63 63 64 65 64 63 62 62 63 64 64 63 62 62 62 62 62 62 62 63 64 64
37 39 37 36 37 38 41 47 52 55 53 53 51 50 44 49 52 59 61 59 60 60 59 59 61 57 52 52 55 58 61 62 62 62 62 63 63 63 63 63 62 63 62 63 63 63 63 61 61 62 62 62 62 61 61 61 61 61 60 61 61 62 63
35 36 39 38 39 43 52 49 52 56 54 54 52 43 39 49 55 59 60 60 60 60 61 61 59 57 52 52 55 60 62 62 62 61 61 60 61 61 62 63 63 63 63 63 62 61 60 60 61 62 63 63 62 60 60 60 60 60 60 60 61 62 63
38 41 36 39 44 50 51 50 55 56 54 52 43 36 44 52 53 58 60 60 60 61 60 59 56 51 54 58 59 61 62 61 60 60 61 61 61 60 61 62 63 60 60 60 60 59 59 59 61 62 62 61 59 61 60 60 59 59 60 61 62 62 63
39 35 38 36 39 47 52 54 54 52 56 46 39 45 47 50 55 57 60 58 58 58 55 52 52 54 60 61 61 60 60 59 58 59 59 60 60 61 62 63 61 59 60 59 59 59 59 61 61 61 61 60 59 59 59 58 59 60 60 61 61 62 62
36 29 29 32 35 49 52 52 56 56 51 44 44 47 50 51 57 58 57 57 56 57 54 55 56 58 59 59 58 57 57 58 57 58 58 58 58 58 58 59 61 61 58 58 58 58 59 59 59 60 61 59 58 58 57 57 58 60 61 61 61 62 62
34 33 37 37 43 49 51 51 51 53 53 54 49 49 52 54 56 57 56 55 57 58 57 57 58 58 57 57 58 57 57 57 57 57 57 57 57 58 60 60 59 60 57 57 57 57 58 58 58 58 60 59 59 57 55 57 59 60 60 60 61 61 62
40 41 36 41 43 47 50 50 50 50 53 52 50 50 50 54 55 55 58 56 56 58 57 58 58 57 60 59 60 58 56 56 55 56 56 56 57 58 58 58 60 59 58 56 56 56 56 57 57 57 58 58 58 56 56 58 58 58 59 61 61 60 60
46 45 46 48 48 50 50 52 51 52 53 53 52 53 54 52 52 54 58 57 57 57 60 59 57 59 58 59 59 59 58 57 57 57 57 56 57 57 57 57 58 57 57 56 56 55 55 56 56 57 56 57 56 55 57 58 58 58 60 61 62 60 59
39 40 46 47 47 48 50 50 52 53 52 51 52 52 51 53 55 56 57 56 56 57 58 58 56 57 58 57 56 56 56 56 56 56 56 56 56 56 56 57 57 56 56 56 56 56 54 54 55 56 55 56 56 56 57 57 57 58 61 60 60 59 57
43 44 46 47 48 49 49 49 49 49 50 52 53 52 52 53 55 57 55 56 56 55 53 55 54 53 55 54 53 54 54 54 54 55 55 55 55 56 56 56 56 55 55 54 55 55 54 53 55 55 56 55 55 56 57 57 57 59 60 60 57 57 57
43 45 48 45 46 50 51 51 51 50 49 50 52 52 53 54 54 55 57 57 55 55 54 56 54 54 55 56 54 53 52 53 53 53 54 55 55 55 54 55 56 54 54 54 54 55 53 53 54 55 55 55 56 56 56 57 57 58 58 58 57 56 57
37 42 47 46 47 42 46 49 49 50 51 51 52 52 53 52 52 52 54 55 56 58 60 59 58 56 55 57 58 56 55 55 54 54 54 54 54 54 55 55 55 55 55 54 54 54 53 53 54 54 54 55 55 56 56 56 57 58 58 57 56 56 58
42 43 42 43 43 44 47 48 50 50 51 52 51 51 51 52 52 52 53 53 53 56 56 58 59 57 56 56 57 56 55 55 56 56 56 54 54 53 53 53 53 53 53 55 55 54 53 54 55 55 54 54 54 55 55 56 56 56 56 57 56 56 58
46 46 46 45 46 50 49 48 49 50 52 53 52 51 52 52 52 52 52 53 52 52 53 56 57 57 56 56 56 55 55 55 55 55 55 56 55 54 54 54 53 54 54 54 54 54 53 54 54 54 54 54 54 55 55 55 55 55 55 55 55 55 57
51 50 46 47 46 48 48 48 50 51 53 53 52 51 52 52 53 53 52 52 52 52 52 53 55 56 56 56 56 56 55 55 55 55 55 56 55 54 53 53 54 54 55 55 54 53 53 53 53 54 53 53 54 54 54 54 55 54 54 54 54 55 57
MSLP
1009.70 1009.46 1009.58 1010.34 1010.22 1016.46 1014.26 1014.06 1015.74 1014.30 1012.82 1013.62 1016.66 1017.34 1017.74 1018.66 1018.98 1021.26 1019.38 1019.54 1019.42 1017.54 1016.86 1016.54 1015.86 1015.90 1016.34 1016.26 1016.42 1016.42 1016.90 1016.82 1016.74 1016.98 1017.02 1016.86 1016.66 1016.62 1016.70 1016.70 1016.74 1016.70 1016.70 1016.78 1016.82 1016.94 1017.10 1017.30 1017.54 1017.62 1017.66 1017.66 1017.90 1018.30 1018.70 1018.98 1019.02 1019.06 1019.14 1019.22 1019.34 1019.46 1019.62
1009.14 1008.82 1009.06 1009.18 1009.50 1009.86 1013.06 1015.58 1013.98 1012.46 1012.22 1012.86 1014.54 1019.14 1019.70 1019.90 1020.42 1020.66 1020.34 1020.70 1020.26 1019.86 1019.98 1017.30 1017.06 1017.02 1016.90 1016.86 1016.62 1016.34 1016.50 1016.62 1016.90 1017.02 1016.98 1016.78 1016.74 1016.62 1016.62 1016.66 1016.54 1016.42 1016.38 1016.50 1016.62 1016.66 1016.82 1017.02 1017.14 1017.38 1017.50 1017.50 1017.78 1017.98 1018.22 1018.70 1018.98 1019.14 1019.06 1019.06 1019.26 1019.38 1019.58
1009.34 1009.02 1008.94 1010.66 1009.62 1009.38 1011.22 1011.98 1010.54 1013.14 1016.82 1016.58 1015.90 1016.70 1021.34 1021.22 1021.34 1021.66 1021.10 1020.54 1019.94 1019.74 1019.26 1018.54 1018.10 1017.62 1017.38 1017.14 1016.86 1016.90 1016.94 1016.46 1016.70 1016.98 1016.94 1016.70 1016.66 1016.78 1016.90 1016.86 1016.82 1016.74 1016.50 1016.46 1016.50 1016.62 1016.62 1016.78 1016.90 1017.06 1017.18 1017.46 1017.78 1017.94 1018.06 1018.30 1018.58 1018.58 1018.74 1018.86 1018.98 1019.14 1019.30
1009.98 1009.46 1010.02 1013.74 1012.30 1010.18 1010.02 1009.62 1011.74 1012.02 1012.38 1014.50 1016.38 1015.74 1016.58 1017.30 1021.18 1022.34 1020.94 1020.90 1020.10 1018.26 1017.78 1017.62 1018.06 1017.58 1017.18 1017.06 1017.14 1017.34 1017.10 1016.70 1016.62 1016.86 1017.02 1016.98 1016.86 1016.98 1017.10 1017.02 1016.94 1016.90 1016.74 1016.38 1016.30 1016.46 1016.74 1016.86 1016.94 1017.06 1017.26 1017.50 1017.78 1017.90 1018.10 1018.26 1018.42 1018.58 1018.74 1018.90 1019.02 1019.26 1019.26
1010.74 1011.98 1011.02 1011.90 1011.66 1013.06 1012.62 1012.30 1013.02 1012.50 1012.98 1013.30 1013.14 1015.82 1016.38 1016.66 1019.70 1020.54 1020.66 1021.70 1019.34 1018.66 1018.02 1017.74 1017.34 1017.42 1017.02 1016.74 1017.10 1017.14 1017.02 1016.86 1016.70 1016.82 1016.98 1017.10 1017.10 1017.18 1017.14 1017.14 1017.10 1017.18 1017.14 1016.94 1016.70 1016.54 1016.54 1016.58 1016.66 1016.90 1017.18 1017.42 1017.58 1017.78 1018.06 1018.18 1018.46 1018.58 1018.70 1018.70 1018.82 1019.02 1019.18
1012.26 1011.70 1011.22 1010.62 1010.94 1009.78 1011.02 1011.78 1012.50 1012.42 1013.86 1014.86 1016.10 1017.82 1017.26 1017.86 1017.50 1019.22 1020.02 1019.10 1019.18 1018.62 1016.98 1017.14 1017.18 1016.78 1016.62 1016.42 1016.74 1017.14 1017.06 1016.94 1016.90 1017.02 1017.14 1017.06 1017.22 1017.06 1017.06 1017.18 1017.26 1017.30 1017.34 1017.34 1017.10 1016.82 1016.66 1016.70 1016.86 1017.06 1017.22 1017.46 1017.70 1017.86 1017.90 1018.06 1018.30 1018.58 1018.78 1018.90 1018.86 1018.90 1019.02
1011.86 1011.18 1010.26 1011.42 1011.02 1011.10 1010.10 1010.34 1011.30 1012.06 1012.14 1012.78 1014.14 1017.10 1018.26 1017.90 1018.06 1018.10 1018.70 1017.98 1018.34 1017.74 1017.26 1016.82 1016.70 1016.58 1016.62 1016.78 1016.74 1017.22 1017.06 1016.86 1016.82 1016.98 1017.02 1016.98 1016.82 1016.82 1016.90 1017.10 1017.22 1017.22 1017.26 1017.38 1017.42 1017.22 1017.06 1016.98 1017.02 1017.10 1017.34 1017.50 1017.66 1017.86 1018.02 1018.14 1018.30 1018.46 1018.54 1018.74 1018.82 1018.94 1019.10
1012.02 1011.02 1010.86 1010.82 1010.98 1010.30 1010.30 1011.18 1011.98 1012.06 1011.74 1011.70 1012.22 1012.62 1014.86 1016.62 1018.42 1018.10 1019.06 1018.42 1018.98 1017.70 1016.90 1016.90 1016.90 1016.86 1016.78 1016.66 1016.70 1017.02 1017.22 1017.14 1016.94 1016.86 1017.02 1017.10 1017.06 1016.82 1016.62 1016.62 1016.66 1016.58 1016.74 1017.10 1017.38 1017.54 1017.46 1017.46 1017.46 1017.46 1017.42 1017.50 1017.62 1017.74 1017.70 1017.78 1018.10 1018.34 1018.46 1018.54 1018.62 1018.78 1018.94
1013.42 1012.46 1011.14 1010.86 1010.26 1010.82 1012.22 1012.10 1011.94 1012.18 1012.46 1012.62 1013.62 1014.30 1014.62 1015.42 1017.74 1016.30 1017.14 1018.90 1019.34 1018.10 1017.18 1017.26 1017.06 1017.18 1017.26 1017.26 1017.30 1017.18 1017.46 1017.34 1017.26 1017.22 1017.18 1017.10 1017.14 1017.10 1017.06 1016.90 1016.62 1016.62 1016.94 1017.30 1017.50 1017.54 1017.70 1017.74 1017.70 1017.62 1017.62 1017.62 1017.66 1017.66 1017.58 1017.74 1017.82 1017.86 1018.14 1018.26 1018.46 1018.58 1018.74
1017.22 1017.34 1017.06 1015.90 1014.06 1013.14 1013.26 1013.02 1012.74 1012.94 1012.02 1012.34 1012.62 1014.82 1015.62 1015.66 1016.86 1017.50 1016.54 1018.14 1019.30 1018.02 1017.82 1017.98 1017.54 1017.50 1017.54 1017.34 1017.42 1017.22 1017.14 1017.30 1017.42 1017.50 1017.58 1017.38 1017.38 1017.38 1017.22 1017.14 1017.18 1017.18 1017.06 1017.10 1017.46 1017.86 1018.06 1018.10 1017.98 1017.86 1017.74 1017.70 1017.70 1017.62 1017.58 1017.66 1018.02 1018.26 1018.26 1018.22 1018.34 1018.54 1018.70
1016.06 1015.74 1014.66 1014.10 1014.30 1014.02 1013.26 1012.70 1012.78 1013.06 1013.34 1012.86 1012.26 1013.50 1015.02 1014.94 1016.98 1017.18 1017.74 1017.58 1018.86 1018.50 1018.34 1018.34 1018.10 1017.78 1017.82 1017.82 1017.74 1017.70 1017.58 1017.34 1017.26 1017.38 1017.50 1017.58 1017.70 1017.70 1017.70 1017.54 1017.42 1017.34 1017.46 1017.62 1017.66 1018.14 1018.50 1018.58 1018.42 1018.26 1018.06 1017.98 1017.78 1017.70 1017.86 1018.02 1018.14 1018.30 1018.38 1018.46 1018.66 1018.82 1018.90
1014.94 1014.98 1014.86 1014.10 1014.70 1013.54 1013.50 1013.02 1013.02 1013.46 1012.94 1012.22 1012.02 1013.46 1013.50 1014.50 1016.50 1017.74 1018.02 1017.74 1017.86 1018.14 1018.02 1018.06 1018.18 1017.90 1017.78 1017.62 1017.54 1017.62 1017.50 1017.42 1017.42 1017.50 1017.58 1017.62 1017.82 1017.94 1017.82 1017.66 1017.62 1017.70 1017.74 1017.78 1017.94 1018.10 1018.34 1018.38 1018.02 1018.22 1018.26 1018.18 1018.22 1018.42 1018.50 1018.34 1018.26 1018.30 1018.38 1018.62 1019.02 1019.38 1019.54
1014.30 1014.90 1014.98 1014.50 1013.22 1013.78 1014.06 1014.14 1013.58 1013.14 1013.26 1012.22 1012.50 1013.22 1014.46 1013.78 1013.74 1013.66 1016.50 1017.34 1017.54 1017.34 1017.10 1017.34 1017.58 1017.74 1017.86 1017.62 1017.46 1017.26 1017.18 1017.30 1017.46 1017.58 1017.82 1018.02 1018.06 1018.14 1018.10 1018.06 1018.06 1018.06 1018.14 1018.22 1018.34 1018.34 1018.38 1018.34 1018.42 1018.54 1018.46 1018.42 1018.50 1018.62 1018.70 1018.74 1018.62 1018.62 1018.62 1018.90 1019.22 1019.50 1019.86
1013.46 1014.22 1014.58 1014.74 1013.34 1013.86 1013.90 1014.38 1014.70 1014.38 1013.82 1013.38 1012.82 1014.54 1014.94 1014.70 1014.26 1014.50 1016.42 1016.82 1017.22 1016.70 1016.86 1017.18 1017.34 1017.18 1017.22 1017.30 1017.06 1017.18 1017.46 1017.70 1017.78 1017.90 1018.10 1018.22 1018.26 1018.26 1018.26 1018.22 1018.14 1018.10 1018.14 1018.26 1018.42 1018.50 1018.66 1018.58 1018.58 1018.66 1018.70 1018.78 1018.90 1018.98 1019.06 1019.14 1019.14 1018.82 1018.70 1019.06 1019.46 1019.78 1019.98
1014.06 1014.26 1013.90 1013.58 1014.30 1013.46 1013.90 1014.10 1013.86 1014.46 1014.98 1014.78 1014.50 1014.74 1015.62 1015.42 1016.58 1016.18 1016.54 1016.90 1017.74 1016.58 1016.10 1016.74 1016.86 1016.94 1017.10 1017.30 1017.62 1017.66 1017.66 1017.78 1017.94 1018.14 1018.34 1018.46 1018.54 1018.46 1018.30 1018.42 1018.50 1018.54 1018.34 1018.22 1018.38 1018.62 1018.74 1018.66 1018.66 1018.78 1018.90 1018.94 1018.98 1019.18 1019.42 1019.46 1019.26 1018.86 1018.74 1019.18 1019.42 1019.66 1019.82
1014.74 1014.46 1014.94 1014.10 1014.30 1013.90 1013.42 1013.78 1014.22 1014.62 1014.78 1015.34 1015.42 1014.50 1014.94 1014.54 1016.98 1016.98 1016.94 1017.86 1017.90 1016.98 1016.10 1016.66 1016.98 1017.30 1017.50 1017.78 1017.78 1017.94 1017.94 1017.82 1018.02 1018.30 1018.62 1018.78 1018.82 1018.74 1018.54 1018.46 1018.70 1018.98 1018.94 1018.82 1018.78 1018.86 1018.86 1018.86 1018.90 1019.02 1019.10 1019.14 1019.18 1019.42 1019.38 1019.38 1019.26 1019.06 1018.94 1019.18 1019.58 1019.70 1019.66
1016.02 1014.78 1015.90 1014.62 1013.86 1013.38 1014.22 1015.26 1015.58 1015.26 1014.94 1015.30 1014.98 1014.94 1014.50 1014.70 1015.06 1016.90 1017.30 1016.30 1014.94 1015.22 1015.62 1016.74 1017.46 1017.46 1017.66 1017.78 1017.86 1018.06 1018.06 1018.02 1018.14 1018.46 1018.78 1018.90 1018.94 1019.06 1019.06 1018.78 1018.66 1018.90 1019.18 1019.10 1019.02 1019.10 1019.06 1019.10 1019.10 1019.18 1019.18 1019.42 1019.70 1019.62 1019.54 1019.42 1019.18 1019.26 1019.34 1019.42 1019.66 1019.86 1019.94
1016.66 1015.70 1015.06 1014.90 1014.86 1017.54 1017.78 1015.30 1015.30 1015.54 1014.46 1014.74 1014.54 1014.74 1015.30 1014.90 1014.70 1015.26 1014.66 1014.74 1014.90 1015.46 1015.94 1016.46 1017.18 1017.58 1017.74 1017.66 1017.62 1017.26 1017.62 1018.22 1018.62 1018.66 1018.70 1018.82 1019.06 1019.34 1019.42 1019.30 1019.14 1019.02 1019.18 1019.26 1019.22 1019.18 1019.10 1019.06 1019.14 1019.26 1019.38 1019.58 1019.78 1019.74 1019.86 1019.90 1020.02 1020.22 1020.22 1020.34 1020.38 1020.34 1020.26
1016.66 1016.46 1015.06 1015.90 1019.34 1017.90 1015.22 1014.50 1014.90 1015.06 1014.78 1014.74 1014.94 1015.42 1015.22 1014.98 1014.78 1014.30 1014.82 1015.10 1015.46 1015.58 1015.86 1016.38 1016.78 1016.94 1017.18 1017.38 1017.54 1017.74 1017.82 1017.90 1018.22 1018.70 1018.90 1019.02 1019.14 1019.30 1019.34 1019.54 1019.46 1019.26 1019.34 1019.38 1019.34 1019.54 1019.62 1019.58 1019.66 1019.82 1020.02 1019.94 1019.90 1020.06 1020.18 1020.38 1020.42 1020.46 1020.42 1020.46 1020.50 1020.50 1020.54
1016.66 1016.70 1017.50 1018.86 1018.06 1015.78 1015.30 1014.66 1014.54 1013.94 1014.14 1014.42 1014.30 1015.30 1014.78 1014.82 1014.98 1014.62 1015.22 1015.22 1015.54 1015.78 1016.18 1016.38 1016.42 1016.90 1017.26 1017.54 1017.86 1017.94 1018.06 1018.02 1018.18 1018.58 1018.98 1019.06 1019.06 1019.18 1019.18 1019.30 1019.38 1019.46 1019.66 1019.50 1019.58 1019.94 1019.90 1019.90 1020.06 1020.22 1020.54 1020.46 1020.46 1020.70 1020.62 1020.78 1020.82 1020.78 1020.70 1020.66 1020.74 1020.74 1020.82
1016.98 1018.38 1017.86 1017.62 1016.66 1015.78 1014.90 1014.98 1015.14 1015.74 1016.26 1016.18 1015.94 1016.22 1015.70 1015.26 1014.78 1014.66 1015.14 1015.46 1015.58 1015.94 1016.30 1016.62 1017.02 1017.18 1017.46 1018.30 1018.78 1018.22 1018.14 1018.22 1018.34 1018.42 1018.70 1018.78 1018.94 1019.06 1019.18 1019.18 1019.46 1019.58 1019.54 1019.66 1019.98 1020.10 1020.30 1020.38 1020.46 1020.62 1020.58 1020.50 1020.62 1020.82 1021.02 1021.26 1021.22 1021.18 1021.06 1021.10 1021.10 1020.90 1020.94
1018.62 1017.38 1018.34 1017.70 1017.58 1018.26 1017.18 1016.22 1015.30 1015.42 1015.38 1015.58 1015.82 1016.06 1015.74 1014.90 1014.58 1014.34 1014.74 1015.38 1015.54 1015.98 1016.46 1016.90 1017.10 1017.18 1018.46 1019.78 1019.62 1018.74 1018.46 1018.38 1018.54 1018.82 1018.86 1018.98 1019.18 1019.38 1019.58 1019.70 1019.82 1019.90 1020.02 1020.14 1020.22 1020.34 1020.66 1020.90 1021.02 1020.94 1020.86 1020.82 1020.98 1021.22 1021.42 1021.42 1021.38 1021.50 1021.54 1021.66 1021.50 1021.34 1021.30
1018.30 1017.90 1018.46 1018.90 1019.18 1017.50 1016.74 1016.02 1015.26 1014.90 1015.46 1015.74 1015.98 1015.90 1016.30 1014.94 1014.90 1014.54 1014.58 1015.22 1015.42 1015.62 1016.30 1016.90 1016.90 1017.82 1019.18 1019.58 1019.30 1018.82 1018.70 1018.82 1018.82 1019.10 1019.42 1019.46 1019.66 1019.82 1019.86 1019.90 1020.22 1020.38 1020.46 1020.46 1020.62 1020.74 1020.90 1021.30 1021.50 1021.34 1021.30 1021.26 1021.38 1021.78 1021.90 1021.94 1021.86 1021.90 1021.98 1022.02 1021.94 1021.86 1021.74
1018.74 1018.14 1018.42 1018.78 1017.98 1016.98 1016.30 1015.82 1015.14 1014.98 1015.18 1015.30 1015.06 1018.06 1017.34 1014.62 1014.74 1014.54 1014.86 1015.14 1015.34 1015.74 1015.94 1016.18 1016.86 1017.42 1018.62 1019.14 1019.06 1018.70 1018.66 1018.86 1019.14 1019.22 1019.54 1019.86 1020.06 1020.26 1020.26 1020.34 1020.38 1020.50 1020.50 1020.46 1020.70 1021.02 1021.30 1021.62 1021.62 1021.50 1021.38 1021.42 1021.74 1022.06 1022.26 1022.18 1022.30 1022.46 1022.46 1022.34 1022.22 1022.06 1021.94
1018.66 1018.34 1018.62 1018.38 1017.90 1016.58 1016.02 1015.54 1015.14 1014.86 1015.18 1014.90 1017.18 1018.74 1015.54 1015.02 1014.70 1014.74 1014.82 1015.46 1015.38 1015.30 1016.02 1016.22 1017.06 1018.02 1017.70 1017.90 1018.50 1018.82 1018.86 1019.10 1019.58 1019.74 1019.90 1020.06 1020.18 1020.42 1020.54 1020.66 1020.66 1020.78 1020.86 1020.94 1021.22 1021.38 1021.54 1021.58 1021.54 1021.50 1021.46 1021.62 1022.06 1022.18 1022.22 1022.26 1022.54 1022.66 1022.54 1022.38 1022.22 1022.10 1022.02
1018.30 1018.82 1018.30 1018.58 1018.34 1016.70 1016.46 1015.86 1015.70 1015.54 1015.02 1017.18 1017.90 1015.26 1016.10 1015.26 1014.90 1015.02 1014.86 1015.34 1015.66 1015.74 1016.18 1016.66 1017.50 1017.86 1017.50 1018.10 1018.50 1018.86 1019.22 1019.58 1019.78 1019.94 1020.22 1020.38 1020.50 1020.62 1020.62 1020.74 1020.78 1021.02 1021.18 1021.34 1021.42 1021.54 1021.54 1021.50 1021.46 1021.50 1021.50 1021.86 1022.18 1022.26 1022.30 1022.54 1022.70 1022.66 1022.54 1022.42 1022.30 1022.22 1022.18
1020.26 1019.30 1018.58 1018.70 1019.38 1017.18 1017.22 1016.42 1014.86 1015.06 1015.82 1015.74 1015.42 1015.54 1015.46 1015.58 1014.86 1014.90 1015.54 1015.66 1016.10 1015.94 1017.10 1017.34 1017.30 1017.34 1017.70 1018.14 1018.70 1019.06 1019.42 1019.70 1020.18 1020.30 1020.38 1020.50 1020.58 1020.70 1020.82 1020.98 1020.90 1020.90 1021.30 1021.50 1021.66 1021.78 1021.70 1021.58 1021.58 1021.66 1021.66 1022.02 1022.26 1022.30 1022.38 1022.62 1022.58 1022.50 1022.50 1022.50 1022.42 1022.38 1022.34
1018.34 1019.34 1019.06 1019.22 1017.98 1017.70 1017.38 1017.30 1016.06 1016.50 1016.42 1016.14 1015.94 1016.02 1015.50 1015.54 1015.30 1015.42 1015.90 1016.30 1016.14 1016.18 1016.34 1016.94 1017.26 1017.38 1017.86 1018.34 1018.54 1019.18 1019.70 1020.06 1020.62 1021.10 1021.10 1020.94 1020.90 1020.94 1020.94 1020.94 1021.10 1021.06 1021.46 1021.78 1021.94 1022.06 1022.02 1021.98 1021.94 1021.94 1021.90 1022.22 1022.42 1022.50 1022.70 1022.66 1022.42 1022.26 1022.26 1022.34 1022.38 1022.42 1022.54
1018.34 1018.42 1018.30 1017.98 1018.02 1018.22 1017.94 1017.90 1017.22 1017.18 1016.54 1016.50 1016.26 1015.74 1015.46 1015.62 1015.58 1015.46 1015.82 1016.26 1016.46 1016.42 1016.50 1016.78 1016.90 1017.58 1017.38 1017.46 1017.58 1017.98 1018.74 1019.30 1019.86 1020.58 1021.46 1021.50 1021.22 1021.22 1021.30 1021.34 1021.30 1021.26 1021.50 1021.86 1022.10 1022.26 1022.34 1022.26 1022.26 1022.30 1022.26 1022.26 1022.46 1022.70 1022.94 1022.74 1022.54 1022.30 1022.18 1022.18 1022.26 1022.38 1022.50
1018.10 1018.38 1018.54 1018.46 1018.02 1018.26 1017.98 1017.54 1017.62 1017.10 1016.66 1016.06 1016.22 1015.86 1015.22 1015.46 1015.50 1015.54 1015.58 1016.18 1016.42 1016.62 1016.26 1016.46 1017.18 1017.14 1017.58 1018.26 1018.66 1018.66 1018.82 1019.10 1019.66 1020.26 1021.06 1021.38 1021.34 1021.50 1021.46 1021.50 1021.42 1021.54 1021.74 1021.90 1022.06 1022.34 1022.58 1022.58 1022.58 1022.54 1022.54 1022.38 1022.54 1022.98 1022.98 1022.82 1022.70 1022.58 1022.34 1022.26 1022.38 1022.50 1022.50
1018.06 1018.14 1017.94 1018.18 1018.54 1018.58 1018.38 1017.94 1017.22 1017.02 1017.14 1016.98 1016.46 1016.22 1016.18 1016.06 1015.82 1015.66 1016.14 1016.30 1016.70 1016.78 1016.62 1016.38 1016.82 1017.50 1017.82 1018.38 1019.06 1019.50 1019.82 1020.14 1020.34 1020.62 1021.34 1021.54 1021.54 1021.54 1021.54 1021.58 1021.58 1021.66 1021.62 1021.74 1021.90 1022.10 1022.50 1022.82 1022.78 1022.78 1022.78 1022.94 1023.06 1023.02 1022.90 1022.82 1022.70 1022.62 1022.50 1022.58 1022.62 1022.66 1022.66
1018.06 1018.46 1018.58 1018.62 1018.54 1018.70 1018.66 1018.50 1018.18 1017.78 1017.46 1016.86 1016.66 1016.74 1016.70 1016.66 1016.42 1016.46 1016.86 1016.70 1016.94 1017.10 1017.74 1017.86 1017.42 1017.78 1018.18 1018.50 1019.02 1019.38 1019.66 1020.22 1020.82 1021.26 1021.54 1021.78 1021.98 1021.94 1021.74 1021.78 1021.74 1021.66 1021.66 1021.78 1021.98 1022.14 1022.46 1022.78 1022.74 1022.74 1022.82 1022.98 1023.02 1023.02 1022.98 1022.90 1022.82 1022.66 1022.74 1022.86 1023.06 1023.06 1023.02
1018.50 1018.62 1018.46 1018.26 1018.18 1018.02 1018.26 1018.42 1018.30 1018.46 1018.34 1017.54 1016.90 1016.98 1016.94 1017.06 1017.26 1017.18 1017.10 1017.18 1017.30 1017.38 1017.78 1018.14 1018.62 1018.86 1018.78 1018.54 1018.78 1019.30 1020.02 1020.30 1020.54 1020.94 1021.54 1021.90 1021.98 1022.02 1022.02 1021.98 1021.70 1021.58 1021.70 1021.82 1021.94 1022.14 1022.62 1022.82 1022.74 1022.74 1022.90 1022.98 1023.02 1023.02 1023.06 1023.02 1022.90 1022.86 1023.06 1023.18 1023.22 1023.18 1023.14
1018.78 1018.46 1018.46 1018.30 1018.34 1018.26 1018.70 1018.74 1018.74 1018.46 1018.34 1017.94 1017.42 1017.38 1017.34 1017.58 1017.50 1017.58 1017.58 1017.42 1017.34 1017.30 1017.10 1017.26 1017.82 1018.18 1018.62 1018.70 1018.54 1018.86 1019.26 1019.58 1019.90 1020.46 1020.74 1021.26 1022.02 1022.30 1022.10 1021.90 1021.66 1021.58 1021.70 1021.86 1022.14 1022.42 1022.78 1022.78 1022.70 1022.74 1022.86 1022.98 1023.06 1023.10 1023.10 1023.10 1023.02 1023.06 1023.22 1023.30 1023.38 1023.46 1023.30
1018.94 1018.70 1018.78 1019.22 1018.86 1018.86 1019.02 1018.90 1018.94 1018.66 1018.42 1018.26 1018.34 1018.70 1018.66 1018.50 1018.38 1018.02 1017.82 1018.18 1018.06 1017.78 1017.74 1017.74 1017.82 1018.06 1018.18 1018.50 1018.82 1019.14 1019.46 1019.54 1019.66 1019.94 1020.46 1021.10 1021.78 1022.10 1022.10 1021.78 1021.66 1021.66 1021.94 1021.94 1022.10 1022.34 1022.58 1022.58 1022.54 1022.58 1022.74 1022.90 1023.02 1023.10 1023.10 1023.10 1023.10 1023.18 1023.22 1023.34 1023.54 1023.58 1023.42
1018.74 1018.78 1018.82 1018.94 1018.70 1018.34 1018.58 1018.90 1019.02 1018.70 1018.22 1018.06 1018.74 1018.94 1018.86 1018.90 1018.90 1018.78 1018.70 1018.74 1018.54 1018.70 1018.82 1018.50 1018.42 1018.26 1018.34 1018.58 1018.70 1019.02 1019.38 1019.62 1019.94 1020.30 1020.58 1020.82 1021.18 1021.50 1021.58 1021.18 1021.38 1021.62 1021.74 1021.78 1021.82 1022.10 1022.46 1022.38 1022.46 1022.58 1022.70 1022.82 1022.94 1023.10 1023.18 1023.18 1023.14 1023.18 1023.22 1023.26 1023.54 1023.62 1023.54
1018.46 1018.42 1018.42 1018.74 1018.74 1018.50 1018.70 1018.74 1018.78 1018.58 1018.46 1017.94 1017.98 1018.26 1018.38 1018.38 1018.70 1018.94 1018.98 1019.02 1019.26 1019.06 1018.86 1019.14 1019.26 1019.30 1018.98 1018.70 1018.74 1018.82 1019.18 1019.58 1019.74 1019.98 1020.42 1020.82 1021.14 1021.14 1021.14 1021.30 1021.22 1021.10 1021.30 1021.54 1021.90 1022.18 1022.30 1022.34 1022.46 1022.54 1022.70 1022.90 1023.06 1023.18 1023.26 1023.26 1023.18 1023.22 1023.34 1023.26 1023.34 1023.42 1023.46
Wind_Speed
6 8 6 2 9 7 4 5 5 5 2 7 5 4 4 2 5 1 1 2 1 4 2 6 6 10 10 10 9 11 9 8 6 4 4 5 4 5 5 8 10 10 9 8 9 9 8 7 8 9 10 11 11 10 10 9 8 8 9 9 8 8 7
3 3 5 6 5 7 6 4 7 2 3 5 5 4 1 3 3 2 1 2 3 1 2 1 7 10 12 11 11 11 11 9 8 6 5 5 6 5 4 4 5 9 11 11 10 9 10 10 11 10 10 8 8 9 10 11 9 9 9 9 8 8 8
2 1 9 5 3 0 12 9 7 7 1 4 1 5 2 2 1 2 2 1 2 4 2 2 7 9 12 11 10 10 11 12 8 6 6 4 5 4 5 5 5 7 9 10 10 10 10 9 8 9 8 8 7 7 8 9 11 11 10 7 7 6 7
2 2 4 6 2 3 5 7 5 0 5 3 4 3 4 5 3 2 4 2 3 3 3 3 6 6 10 11 12 10 7 8 9 7 7 7 5 4 4 4 4 3 3 8 11 11 10 10 9 9 8 7 8 8 7 7 5 5 6 7 6 7 6
2 4 1 8 8 6 4 5 3 0 2 2 6 2 2 5 7 4 3 1 5 2 2 2 4 5 7 8 10 8 7 7 6 6 5 5 4 3 3 3 3 3 2 1 1 3 7 7 7 7 8 9 9 7 7 7 9 9 9 9 8 7 5
0 3 3 3 5 11 11 9 8 8 7 5 6 2 1 2 6 4 5 5 3 2 1 2 6 5 7 8 9 8 7 7 5 6 6 6 5 5 5 4 4 4 4 4 4 4 5 7 8 9 7 7 7 8 7 7 6 5 6 6 7 7 6
2 1 2 1 4 0 4 7 9 5 3 6 5 6 3 3 1 3 2 3 3 2 3 0 6 7 9 8 9 8 8 9 8 7 7 7 6 8 8 8 7 6 4 4 3 3 4 5 6 7 7 8 7 6 5 5 6 7 6 6 4 4 5
6 5 3 2 2 1 4 4 3 4 4 6 6 5 7 7 3 3 2 1 2 2 2 4 7 7 7 6 7 9 7 7 8 9 9 7 7 8 9 9 9 7 8 7 4 4 5 5 6 6 6 7 7 8 8 8 8 7 6 7 7 6 7
3 4 4 4 3 5 2 1 1 1 3 6 4 6 2 5 6 6 8 5 3 2 5 5 7 7 7 8 5 5 8 7 7 7 6 6 5 7 8 8 9 10 9 8 6 5 5 6 6 6 6 6 7 8 8 8 7 7 7 7 7 8 8
5 5 3 1 0 1 4 0 0 0 5 11 6 4 1 2 2 4 3 2 2 6 7 7 6 6 5 4 7 7 7 6 6 6 5 6 6 7 7 7 6 6 7 7 6 4 4 5 5 6 6 6 6 6 6 4 4 4 3 5 7 7 7
3 1 3 3 0 1 1 0 1 2 2 3 6 5 5 6 4 5 3 6 10 12 12 10 10 9 9 7 6 8 9 7 5 5 5 6 7 7 6 6 6 6 7 8 9 7 5 6 5 3 4 5 5 5 4 6 5 4 2 2 1 3 4
2 3 4 4 3 2 1 0 1 1 3 4 7 7 6 5 11 3 1 9 16 15 13 12 12 10 9 7 7 7 8 7 5 7 7 10 11 8 5 5 6 7 8 9 8 8 8 7 5 4 4 4 4 4 4 4 3 3 2 2 4 6 4
1 0 3 5 1 1 1 2 2 2 2 4 5 2 3 10 8 9 9 13 13 14 16 13 10 8 10 10 10 9 8 8 7 8 8 8 10 8 6 5 6 7 8 8 8 7 8 8 6 6 5 5 5 7 6 6 4 2 2 1 5 5 4
5 8 8 8 5 2 5 7 6 4 1 1 6 4 2 2 0 2 14 12 6 9 11 12 11 9 10 9 7 8 9 9 8 9 9 10 9 7 6 6 7 7 9 8 8 9 8 7 7 8 8 7 7 8 8 6 4 1 2 1 4 5 2
5 6 11 8 8 5 7 7 9 8 5 5 4 5 4 9 9 10 14 12 9 3 11 11 10 9 8 9 10 10 10 10 10 9 9 8 7 6 7 7 8 7 8 9 8 9 9 8 8 9 9 8 8 8 6 7 7 6 6 7 8 8 5
4 4 11 10 5 3 6 7 10 9 6 4 0 3 2 6 9 11 12 9 7 9 12 10 11 12 12 12 11 10 9 10 10 11 9 8 7 6 7 8 9 9 8 8 9 9 9 10 10 9 9 8 8 8 6 6 5 5 8 9 9 8 7
2 5 4 7 6 4 6 7 7 4 3 2 0 2 1 4 17 13 12 11 9 16 15 16 13 14 12 12 11 10 9 8 10 12 10 9 9 7 4 6 10 11 10 9 10 10 8 9 10 9 9 9 8 7 7 7 8 8 8 8 8 8 7
2 7 11 4 4 3 1 3 2 2 2 1 1 1 1 9 3 2 1 6 14 14 15 17 16 14 13 12 8 7 11 11 9 9 10 10 10 8 6 6 7 9 9 8 10 10 9 10 10 9 8 9 8 8 7 7 8 7 8 8 7 7 8
1 5 6 4 2 3 2 5 3 4 6 2 6 6 5 4 3 5 10 13 13 12 11 12 13 12 9 7 9 8 7 9 11 11 10 10 10 10 8 8 7 9 9 9 11 10 9 8 9 9 9 8 8 8 8 8 7 7 8 8 8 8 8
2 4 4 2 1 4 5 6 4 4 3 3 7 5 4 4 3 7 12 13 12 12 13 11 10 11 11 9 6 7 7 6 11 12 11 10 10 10 9 10 9 9 8 9 10 8 5 7 7 7 7 6 9 8 7 7 7 7 8 9 8 8 8
3 2 1 3 4 3 5 4 5 4 3 3 1 1 1 3 2 6 13 13 14 14 12 11 10 10 10 9 5 4 7 8 5 9 11 10 9 8 7 8 8 7 8 9 8 8 8 7 8 7 6 8 8 9 9 7 8 8 9 8 7 7 7
3 5 2 5 5 1 3 2 5 3 2 2 3 2 2 3 2 5 14 15 16 15 14 13 12 12 11 8 5 3 6 7 10 7 7 7 8 7 7 8 7 8 8 7 7 9 9 9 7 6 7 8 9 10 9 8 9 9 8 7 6 6 7
3 3 4 2 3 2 3 5 6 5 1 2 3 2 3 1 1 4 10 16 16 17 16 15 14 11 10 9 7 5 7 7 8 10 7 9 8 8 8 10 10 8 8 9 9 9 10 10 6 6 7 9 10 8 7 8 9 9 8 6 7 7 6
1 4 5 6 4 1 2 4 5 5 4 1 3 2 5 4 3 5 7 14 17 15 16 16 13 13 12 11 7 6 8 8 6 9 11 10 9 8 8 8 8 8 7 10 11 11 10 7 5 6 8 9 9 8 6 7 9 8 6 5 4 4 5
1 3 1 2 2 3 3 5 9 8 2 2 4 6 2 2 4 4 8 8 10 14 14 11 11 0 2 9 10 8 9 11 9 7 6 7 8 10 9 8 7 8 8 10 9 9 6 6 6 6 8 10 8 6 7 9 8 5 4 4 5 5 6
1 0 1 3 2 3 3 7 8 4 0 0 2 4 1 3 5 3 8 11 7 9 9 7 6 7 12 13 11 11 9 8 8 9 8 8 8 6 6 8 9 9 9 9 9 8 6 6 6 7 8 9 7 7 8 8 5 3 4 4 5 6 7
1 3 3 2 2 1 3 13 4 2 2 3 3 3 2 3 6 10 6 8 9 11 10 10 12 15 15 14 12 11 10 11 10 9 9 9 10 9 9 8 7 10 9 9 9 8 6 7 6 6 9 9 7 7 8 5 4 3 3 4 5 6 6
1 1 0 0 2 6 5 4 1 3 1 4 2 1 0 1 2 9 8 3 6 9 16 16 14 16 16 14 14 12 9 9 8 6 4 5 5 6 6 8 8 10 10 8 8 7 6 6 6 6 8 8 7 8 7 5 4 4 4 5 5 6 5
1 0 1 3 3 4 4 1 2 3 4 2 4 3 2 4 1 1 8 8 6 8 11 13 15 14 15 18 19 20 18 17 15 13 8 6 7 7 8 9 7 9 11 10 9 8 6 7 7 6 6 8 7 7 4 3 5 5 5 5 5 6 6
1 1 3 3 3 6 9 4 2 4 7 7 3 1 4 0 2 1 9 9 9 9 10 16 9 12 12 13 8 10 12 14 12 10 8 6 6 6 7 6 7 8 9 10 10 9 7 6 7 6 7 7 7 3 3 3 3 4 5 5 5 6 6
3 1 5 7 4 5 9 10 9 6 6 5 5 5 4 0 2 8 6 8 7 6 7 12 13 11 12 12 9 7 6 7 8 9 7 6 7 8 8 6 7 8 8 9 9 8 8 5 6 7 8 6 5 4 5 4 4 4 5 6 5 6 6
1 1 2 2 1 2 4 7 9 10 11 11 8 5 5 3 3 6 8 9 10 9 7 4 11 12 10 12 11 10 10 9 7 5 6 6 4 3 5 5 6 7 8 9 8 8 7 6 6 7 7 7 5 5 5 5 4 5 6 5 5 5 6
1 1 2 4 3 3 9 8 7 6 6 6 9 10 10 9 8 6 5 7 11 11 12 11 11 11 10 12 13 13 9 8 8 8 4 2 3 5 6 5 7 9 8 9 8 8 7 6 7 8 7 6 6 7 5 5 5 7 6 6 5 6 5
1 0 1 1 1 1 5 6 6 7 7 7 10 11 12 11 9 8 6 4 2 4 12 14 12 14 12 11 13 15 14 14 14 11 10 9 8 7 6 5 7 8 7 9 8 8 7 6 7 7 7 6 5 5 5 5 6 6 5 5 6 6 5
1 3 3 2 2 3 2 1 3 3 5 9 11 9 9 10 9 7 8 8 3 4 3 3 9 12 13 12 9 11 10 11 11 13 15 13 10 9 7 8 7 7 7 7 9 8 7 7 7 7 7 6 6 5 5 5 6 6 5 5 4 4 6
1 2 1 4 1 0 1 2 1 2 4 9 7 6 6 8 9 10 11 9 7 5 5 1 1 8 10 10 12 12 10 10 10 11 11 12 11 10 9 9 9 9 8 8 9 10 7 7 7 7 7 6 6 5 5 5 6 7 6 5 5 4 4
1 1 2 3 3 2 2 2 2 0 1 3 5 4 4 6 6 7 10 9 10 8 4 5 7 6 3 10 10 12 12 11 13 14 12 10 10 10 9 9 10 10 9 8 8 8 7 7 7 7 7 5 5 4 4 4 5 6 5 5 5 4 4
Wind_Direction
166 205 140 191 143 163 204 121 169 206 173 111 98 71 90 109 62 260 196 340 292 292 313 11 88 111 129 137 143 141 144 153 152 154 138 151 151 135 150 173 179 181 181 185 191 193 190 187 185 188 186 186 186 177 177 187 191 184 185 190 186 183 177
266 179 163 165 174 142 105 163 221 122 86 110 117 150 353 62 142 227 56 231 295 52 228 86 105 135 150 155 163 165 156 163 167 171 165 168 166 156 134 138 172 184 184 184 187 189 186 187 190 190 192 189 184 184 182 181 184 190 195 188 188 185 183
275 5 100 61 17 316 155 185 166 128 202 247 337 100 106 105 302 267 305 325 278 176 234 182 153 152 160 159 161 160 167 178 178 175 163 176 167 151 139 146 170 189 188 188 186 186 185 189 193 193 185 175 179 192 192 186 189 195 192 190 188 189 188
319 35 93 171 204 25 4 102 111 96 113 146 124 205 161 110 183 93 282 88 233 215 183 188 172 158 154 152 157 164 167 168 174 182 176 188 192 155 142 156 179 203 224 201 187 180 178 180 183 183 175 172 185 190 187 191 177 169 173 187 187 196 198
86 164 355 171 159 135 110 121 154 230 33 223 102 42 94 157 165 184 151 300 259 249 226 276 156 140 153 158 156 154 162 166 164 161 152 154 175 143 126 163 133 77 31 6 191 174 173 172 178 171 173 181 183 173 183 180 184 186 191 193 185 194 182
103 233 240 189 188 157 159 152 182 159 125 121 145 223 7 96 112 184 141 228 283 286 2 260 127 134 151 140 131 128 139 149 133 113 111 131 133 116 120 102 92 85 54 42 67 102 136 155 165 169 170 163 165 180 178 175 181 195 193 196 200 192 187
188 240 280 287 207 11 157 143 180 160 128 109 106 157 223 65 51 82 129 107 285 251 322 205 123 118 125 122 121 125 133 139 133 118 115 113 119 134 126 113 100 98 97 84 67 90 121 143 147 149 154 169 170 152 142 167 184 192 183 191 187 175 189
302 315 316 21 64 97 78 18 61 108 162 175 162 171 173 134 162 86 5 186 256 296 91 102 118 118 129 144 150 144 136 134 135 129 132 135 133 136 138 135 137 150 138 131 126 115 110 110 113 124 140 146 145 152 164 172 187 188 180 179 175 178 185
345 345 349 2 338 51 63 126 311 74 100 78 105 100 53 105 206 164 135 211 235 162 109 119 133 131 142 140 106 109 120 127 129 133 147 141 129 131 133 137 148 144 134 135 142 142 127 112 109 120 133 144 154 172 181 187 189 171 175 177 183 186 188
145 161 157 202 282 266 278 282 11 240 137 133 120 112 94 109 212 123 139 183 264 127 132 145 144 133 127 109 117 111 115 122 134 137 134 120 102 98 120 126 124 131 133 139 132 105 80 86 106 116 119 122 131 162 190 166 108 90 137 181 189 187 190
169 205 220 264 197 336 117 132 112 158 82 79 89 110 116 183 186 171 226 164 148 158 162 164 158 152 151 143 128 119 121 120 107 100 87 84 82 85 91 108 120 121 129 120 104 84 77 68 83 97 111 113 125 135 102 87 88 106 103 97 149 180 185
180 203 231 259 243 203 252 328 61 343 137 130 120 141 206 162 111 251 211 176 152 173 168 167 163 159 152 147 139 123 122 121 109 97 94 98 94 92 92 107 120 109 101 101 102 127 133 138 158 137 92 95 90 62 69 76 91 115 137 105 70 42 23
114 262 292 307 112 65 86 55 15 144 221 132 139 205 187 154 155 198 182 173 170 170 172 160 158 153 153 155 150 141 129 111 106 102 97 98 102 102 95 77 73 88 91 96 108 113 130 141 140 127 116 94 75 73 62 51 51 41 20 92 97 90 61
16 18 7 5 54 52 51 30 27 16 71 154 117 93 72 57 316 167 150 157 139 154 150 145 157 156 150 140 130 129 125 122 112 102 101 107 104 104 98 83 70 79 87 81 80 92 101 124 124 109 96 89 78 72 62 54 42 124 215 94 95 97 95
349 354 0 14 12 41 67 32 37 31 36 67 74 104 99 82 49 110 131 134 133 122 131 143 141 135 134 131 138 134 128 127 122 110 102 98 109 116 105 97 82 70 84 88 85 84 90 93 88 83 82 79 81 77 73 75 73 77 86 78 85 105 132
327 356 8 333 7 41 73 37 19 11 16 61 323 120 193 119 138 132 122 130 153 153 145 131 136 142 149 147 141 139 141 134 126 116 109 108 101 99 119 116 106 98 81 80 84 83 82 85 83 87 83 78 72 66 60 59 58 56 72 76 76 73 60
292 292 3 336 352 32 15 353 342 325 299 247 287 335 82 156 143 136 161 202 159 152 147 142 149 151 153 149 148 138 130 129 130 125 120 110 96 80 45 93 111 104 90 88 89 86 86 82 84 77 83 82 74 68 61 52 51 48 50 60 63 65 63
247 317 330 340 50 41 290 246 262 214 233 182 126 200 170 144 112 190 1 126 135 145 150 151 154 150 159 158 154 145 141 135 123 117 121 119 112 102 88 74 76 88 99 91 83 79 74 78 79 84 81 82 78 73 71 65 68 68 74 69 68 68 69
325 331 3 50 27 241 244 301 286 225 228 132 118 76 66 342 318 124 116 131 143 144 138 134 139 150 135 121 130 125 126 130 127 130 123 122 123 122 117 105 88 89 95 93 90 82 77 74 79 74 65 66 77 69 65 64 59 68 70 72 65 62 59
71 42 25 87 228 246 289 285 352 16 90 54 69 48 356 16 319 146 137 137 131 129 131 138 139 127 120 96 84 109 108 118 132 133 131 132 134 132 133 123 117 112 105 94 84 77 61 61 61 70 79 80 76 72 65 60 53 50 52 55 56 61 57
152 155 107 249 296 338 6 4 13 32 354 341 43 170 267 320 295 147 134 132 130 128 134 129 121 117 107 106 79 68 115 107 94 123 130 137 133 128 119 113 109 103 93 89 91 84 67 57 59 56 62 65 68 65 61 55 58 50 48 43 31 32 43
113 129 38 1 15 307 285 246 275 263 248 223 196 118 320 320 44 142 139 141 138 135 134 135 135 126 116 130 156 120 108 110 107 82 104 108 110 103 96 98 90 93 91 89 81 88 83 65 53 65 66 71 68 62 54 46 49 46 45 37 26 31 30
48 78 146 199 157 249 217 273 287 298 276 219 171 77 311 265 194 149 150 141 146 146 144 144 144 145 155 168 161 162 126 116 117 117 111 111 110 111 116 117 113 107 101 100 98 88 82 74 59 79 83 80 73 66 58 54 51 45 35 28 24 24 21
70 142 157 210 194 182 335 276 291 307 333 224 81 58 272 223 197 153 152 152 149 151 150 149 159 164 167 171 166 152 134 122 117 128 133 125 117 105 102 95 108 112 112 95 81 81 83 92 103 92 85 79 76 73 66 65 56 47 28 13 356 21 38
103 101 286 352 320 295 295 287 300 324 314 71 103 190 245 237 147 148 136 145 152 146 150 159 153 240 125 130 138 129 115 107 98 84 90 109 117 124 119 117 111 95 86 89 93 93 101 108 98 94 89 82 75 73 68 60 52 29 6 7 29 36 38
70 160 122 209 239 241 275 285 288 279 33 329 216 237 213 157 125 128 139 138 142 139 134 116 117 136 110 108 103 110 109 107 109 113 115 109 100 97 107 117 108 100 96 94 91 78 72 75 78 82 85 83 79 69 61 52 30 350 20 32 39 47 44
69 43 63 20 110 235 57 321 348 23 28 233 224 281 302 244 151 135 130 138 145 133 119 122 126 122 118 116 116 113 117 120 124 130 132 133 132 130 120 104 104 109 99 91 81 78 57 56 59 70 82 80 72 60 51 13 323 360 32 52 52 53 49
138 74 75 148 217 285 331 359 53 328 313 307 252 145 9 306 170 131 122 119 139 140 134 138 132 128 121 120 122 115 108 101 79 38 58 104 111 108 98 111 119 107 103 95 88 72 64 63 63 64 80 82 73 62 35 329 349 13 32 34 57 60 56
95 278 206 256 261 258 290 280 257 265 285 294 244 164 157 162 220 88 127 142 134 135 126 124 131 134 146 151 152 147 152 146 147 152 171 171 148 135 131 131 124 112 113 111 101 82 69 73 66 66 70 81 72 59 357 348 10 21 22 27 40 42 38
245 195 209 268 341 354 342 346 321 331 345 346 15 323 135 233 142 125 150 148 149 150 147 133 138 147 152 142 142 143 143 137 141 141 152 151 128 128 125 124 120 116 113 109 107 102 79 73 76 70 63 67 69 21 337 20 24 22 45 42 37 32 23
69 226 340 30 359 344 5 352 351 9 14 351 349 5 0 357 116 106 95 116 127 153 157 143 135 136 136 123 108 101 88 103 129 133 142 141 148 147 140 143 127 117 114 110 110 106 99 83 90 86 79 71 81 54 42 15 22 34 61 54 46 33 20
83 236 296 293 272 79 25 23 13 355 344 349 13 10 14 356 47 93 113 108 109 114 80 61 116 122 129 129 128 125 122 117 109 105 129 140 144 156 146 148 129 124 121 123 119 114 111 115 107 98 86 81 71 62 47 35 34 59 60 58 57 40 27
293 320 290 310 281 354 23 10 20 3 350 353 15 21 30 33 32 45 87 121 135 124 132 140 139 139 149 142 134 124 117 115 118 118 107 121 170 169 170 170 150 140 142 137 136 124 125 132 111 97 94 87 74 69 56 46 54 68 64 55 52 40 27
347 182 237 14 139 281 331 0 351 357 0 42 40 30 31 26 27 15 21 40 63 151 157 154 154 150 151 153 147 146 151 153 146 149 153 164 196 211 199 168 157 151 143 134 127 122 129 130 114 110 106 101 94 92 82 67 67 71 68 62 52 41 34
294 268 253 213 152 136 232 244 319 12 26 48 47 35 31 29 29 37 52 19 12 120 151 164 159 153 156 159 155 145 152 158 160 163 165 173 187 192 187 160 163 143 142 137 127 127 139 136 125 124 120 118 112 106 107 103 95 88 78 73 61 44 39
259 220 214 178 146 177 243 251 293 358 80 75 58 43 45 48 38 36 41 41 46 0 341 336 211 163 151 159 156 162 166 164 162 169 179 182 180 177 180 168 159 150 147 143 142 146 151 143 135 127 120 123 115 116 111 114 106 99 96 90 78 55 49
39 213 180 175 209 238 221 213 242 253 344 94 109 98 69 40 42 50 43 34 25 24 33 351 338 325 213 172 177 169 170 176 178 179 180 177 179 176 177 166 162 157 159 157 152 152 154 146 138 131 121 120 112 101 92 95 97 94 95 98 95 77 76